Results By Division


Marshman® Triathlon Presented by Kinetic PT

Race Date: Sunday September 14, 2008
Description: 1/4 Mile Swim~12.5 Mile Bike~2 Mile Run
Race Category: Triathlon
# Entrants in Division: 35

Choose:
 Division
Place
Overall
Place
NameCityStateRace AgeGenderDivisionTimeBib#
View 1 8 Reid, James West Chester PA 47 M 45-49 0:59:38 281
View 2 22 Dawson, John Dorchester NJ 47 M 45-49 1:02:11 273
View 3 27 Fritsche, Todd Spring City PA 48 M 45-49 1:03:07 151
View 4 28 Mays, Michael Hatfield PA 48 M 45-49 1:03:16 267
View 5 37 Bieber, Michael Mohnton PA 45 M 45-49 1:05:17 274
View 6 48 Enck, Kurt Mount Joy PA 46 M 45-49 1:06:29 187
View 7 60 Elmer, Jim Reinholds PA 48 M 45-49 1:07:29 264
View 8 71 Rourke, Breen Oaklyn NJ 48 M 45-49 1:08:29 229
View 9 73 Schutawie, Jim Collegeville PA 45 M 45-49 1:08:36 238
View 10 94 Luscombe, Dana Harleysville PA 45 M 45-49 1:10:02 206
View 11 99 Lederer, Sean Philadelphia PA 46 M 45-49 1:10:27 289
View 12 103 Patton, Gerald West Chester PA 48 M 45-49 1:10:58 226
View 13 109 Frees, Robb Phoenixville PA 46 M 45-49 1:11:26 147
View 14 112 Mckernan, Chip Collegeville PA 45 M 45-49 1:11:43 195
View 15 114 Twiford, Michael Bath PA 49 M 45-49 1:11:48 200
View 16 115 Curless, Craig Phoenixville PA 45 M 45-49 1:11:57 204
View 17 132 Benedetti, Gino Media PA 46 M 45-49 1:13:08 246
View 18 137 Segner, Greg Pottstown PA 45 M 45-49 1:13:29 256
View 19 139 Glinecke, Robert Pottstown PA 49 M 45-49 1:13:38 169
View 20 142 Concannon, Thomas Berwyn PA 45 M 45-49 1:13:52 167
View 21 194 Foster, Paul West Chester PA 47 M 45-49 1:17:20 265
View 22 206 Knowles, Randy West Deptford NJ 46 M 45-49 1:18:27 255
View 23 212 Mcginley, Jim Pottstown PA 46 M 45-49 1:19:03 208
View 24 213 Fones, Dave Mechanicsburg PA 47 M 45-49 1:19:04 247
View 25 227 Picardi, Kenn Pottstown PA 48 M 45-49 1:19:41 284
View 26 229 Murray, Jeffrey Limerick PA 46 M 45-49 1:19:54 189
View 27 237 Wilson, Thomas Rising Sun MD 48 M 45-49 1:20:24 283
View 28 249 Kukwa, Rick West Chester PA 46 M 45-49 1:21:16 227
View 29 251 Greim, Joe Hatboro PA 47 M 45-49 1:21:34 170
View 30 309 Berne, Douglas Wyomissing PA 46 M 45-49 1:26:00 194
View 31 330 Saunders, Sean Malvern PA 49 M 45-49 1:27:38 286
View 32 351 Oviedo, Henry Fort Washington PA 45 M 45-49 1:29:07 263
View 33 355 Rizol, Jim Lansdale PA 45 M 45-49 1:29:12 153
View 34 362 Salamone, John Pottstown PA 48 M 45-49 1:29:48 290
View 35 370 Winoski, David Havertown PA 47 M 45-49 1:30:21 261